Terug naar catalogus

DELTA 1 R/B

ActiefSSO
NORAD 1983·ROCKET BODY·🇺🇸 United States

Gelanceerd Feb 3, 1966 vanaf Cape Canaveral Space Force Station

Loading…

Volgende Passages (komende 24 uur)

TLE

VersSource: Space-Track

Epoch: Sep 14, 2026, 04:41 UTC

1 01983U 66008B   26257.19555178  .00000631  00000-0  11332-3 0  9997
2 01983  98.0264 173.0935 0063438 170.8568 189.3809 14.68851420185707

Volg DELTA 1 R/B in realtime met AllMySat

Download on the App Store